PDT,Max TemperatureF,Mean TemperatureF,Min TemperatureF,Max Dew PointF,MeanDew PointF,Min DewpointF,Max Humidity, Mean Humidity, Min Humidity, Max Sea Level PressureIn, Mean Sea Level PressureIn, Min Sea Level PressureIn, Max VisibilityMiles, Mean VisibilityMiles, Min VisibilityMiles, Max Wind SpeedMPH, Mean Wind SpeedMPH, Max Gust SpeedMPH,PrecipitationIn, CloudCover, Events, WindDirDegrees
2012-8-1,79,67,55,57,54,53,93,69,45,30.06,29.99,29.93,10,10,8,15,8,24,0.00,2,,204
2012-8-2,80,68,56,57,55,53,93,69,45,30.00,29.93,29.84,10,9,8,16,9,21,0.00,3,,201
2012-8-3,72,63,54,55,53,51,93,75,57,29.90,29.84,29.78,10,10,10,18,11,23,0.00,3,,203
2012-8-4,74,64,53,57,53,50,93,73,53,29.97,29.88,29.82,10,10,10,21,11,25,0.00,6,,253
2012-8-5,78,68,57,58,56,53,90,70,49,30.05,29.99,29.94,10,10,10,18,12,26,0.00,4,,247
2012-8-6,83,69,54,57,54,52,86,63,40,30.12,30.05,29.99,10,10,10,15,8,29,0.00,3,,242
2012-8-7,84,66,47,57,53,47,93,64,35,30.03,29.98,29.92,10,10,5,18,7,23,0.00,0,,207
2012-8-8,87,67,47,56,53,46,93,64,34,29.99,29.93,29.86,10,10,9,15,5,22,0.00,0,,205
2012-8-9,88,69,50,57,55,50,96,64,31,29.93,29.86,29.78,10,10,9,13,5,16,0.00,0,,191
2012-8-10,85,68,51,58,54,49,93,65,37,29.82,29.78,29.70,10,9,7,14,5,16,0.00,0,,194
2012-8-11,87,68,48,58,53,48,96,67,37,29.81,29.75,29.69,10,8,0,13,5,16,0.00,2,Fog,198
2012-8-12,80,64,48,57,52,46,93,69,45,29.87,29.81,29.74,10,10,7,12,7,16,0.00,1,,213
2012-8-13,84,69,53,56,53,49,89,63,37,29.83,29.78,29.73,10,10,10,13,6,21,0.00,0,,208
2012-8-14,77,66,54,57,55,51,86,70,53,29.80,29.77,29.73,10,10,10,20,9,,0.00,0,,205
2012-8-15,76,66,56,56,54,51,86,68,50,29.87,29.82,29.77,10,10,10,20,11,23,0.00,1,,236
2012-8-16,79,66,53,58,53,50,93,69,44,29.96,29.89,29.83,10,10,9,17,9,20,0.00,1,,242
2012-8-17,81,67,52,57,53,51,93,66,39,30.00,29.92,29.86,10,10,10,20,10,32,0.00,2,,247
2012-8-18,80,68,56,56,54,50,84,62,39,29.94,29.89,29.84,10,10,10,23,11,28,T,0,,219
2012-8-19,76,63,50,56,53,48,89,70,50,29.97,29.91,29.85,10,10,10,16,8,26,0.00,3,,230
2012-8-20,73,64,54,55,53,51,93,71,49,29.94,29.87,29.81,10,10,10,16,9,20,0.00,3,,217
2012-8-21,72,62,51,56,53,48,93,75,57,29.93,29.86,29.81,10,10,10,17,9,28,0.00,3,,227
2012-8-22,72,62,52,56,54,50,93,75,57,29.93,29.88,29.85,10,10,8,20,11,24,0.00,4,,214
2012-8-23,73,63,53,57,53,50,93,75,57,29.96,29.88,29.81,10,9,1,15,8,21,0.00,5,,232
2012-8-24,73,62,50,54,53,49,93,71,49,29.91,29.85,29.80,10,10,8,17,8,20,0.00,3,,210
2012-8-25,69,60,51,54,51,48,96,77,57,29.88,29.83,29.76,10,10,7,21,10,26,0.00,5,,251
2012-8-26,75,64,53,52,50,47,89,64,38,29.96,29.90,29.82,10,10,10,20,12,25,0.00,4,,265
2012-8-27,86,66,45,59,51,43,93,65,37,30.03,29.97,29.91,10,8,0,16,5,29,0.00,0,Fog,206
2012-8-28,90,70,50,56,53,46,96,60,23,30.02,29.94,29.89,10,10,10,28,6,93,0.00,0,,226
2012-8-29,92,70,47,57,51,46,100,62,23,29.91,29.84,29.75,10,10,10,12,5,15,0.00,0,,212
2012-8-30,72,62,51,56,53,48,93,73,53,29.83,29.78,29.73,10,10,8,20,8,31,0.00,2,,196
2012-8-31,71,63,54,52,51,49,89,71,53,29.94,29.88,29.82,10,10,10,21,10,26,0.00,5,,243